[[{"header":{"parameterUnit":"m.s-1","parameterCategory":2,"la1":30.2991,"la2":30.254,"lo1":-89.0895,"lo2":-89.0444,"dy":0.0017,"dx":0.0017,"nx":28,"ny":28,"refTime":"2023-07-30T21:00:00:Z","depth":"0","parameterNumber":2,"parameterNumberName":"U-component_of_CURRENTS"},"data":[0,0,0,0,0,0,0,0,0,0,0,0,0,0,0,0,0,0,0,0,0,0,0,0,0,0,0,0,0,0,0,0,0,0,0,0,0,0,0,0,0,0,0,0,0,0,0,0,0,0,0,0,0,0,0,0,0,0,-0.3232,-0.3233,0,-0.333,-0.333,-0.3331,-0.3444,-0.3446,-0.3448,-0.345,-0.3598,-0.36,-0.3602,0,0,0,0,0,0,0,0,0,0,0,0,0,-0.2847,-0.2855,-0.3232,-0.3233,-0.3235,-0.3329,-0.333,-0.3331,-0.3443,-0.3446,-0.3449,-0.3451,-0.3597,-0.36,-0.3602,0,0,0,0,0,0,0,0,0,0,0,0,0,-0.2982,-0.2857,-0.3231,-0.3306,-0.3314,-0.3329,-0.333,-0.3331,-0.3443,-0.3446,-0.3449,-0.3452,-0.3596,-0.3599,-0.3602,-0.3556,0,0,-0.3611,-0.3612,0,0,0,0,0,0,0,0,-0.2975,-0.2996,-0.3293,-0.3301,-0.331,-0.3382,-0.3249,-0.3411,-0.3442,-0.3389,-0.345,-0.3454,-0.3531,-0.3539,-0.3543,-0.3563,-0.3569,-0.3611,-0.3613,-0.3614,-0.3615,0,0,0,0,0,0,0,-0.2966,-0.2991,-0.3266,-0.3295,-0.3305,-0.3233,-0.3259,-0.3278,-0.3438,-0.3394,-0.3403,-0.3421,-0.3536,-0.354,-0.3548,-0.3572,-0.3611,-0.3614,-0.3616,-0.3617,-0.349,-0.3485,0,0,0,0,0,0,-0.2977,-0.2984,-0.3263,-0.3269,-0.3152,-0.3239,-0.3267,-0.3352,-0.3437,-0.3454,-0.3418,-0.3426,-0.3533,-0.3544,-0.3554,-0.3497,-0.3614,-0.3617,-0.3619,-0.3495,-0.3489,-0.3483,0,0,0,0,0,0,-0.2969,-0.3003,-0.3259,-0.3127,-0.3156,-0.3246,-0.3337,-0.3352,-0.3371,-0.3456,-0.3474,-0.3425,-0.3536,-0.3549,-0.3542,-0.3504,-0.3618,-0.3621,-0.3501,-0.3493,-0.3486,-0.3389,0,0,0,0,0,0,-0.2959,-0.3002,-0.304,-0.3131,-0.3164,-0.326,-0.3335,-0.3352,-0.3379,-0.339,-0.3467,-0.3483,-0.354,-0.3537,-0.3545,-0.3511,-0.3623,-0.3507,-0.3497,-0.3488,-0.3398,-0.3379,-0.3362,0,0,0,0,0,-0.2946,-0.2988,-0.3043,-0.3075,-0.3227,-0.3258,-0.3266,-0.3334,-0.3376,-0.3365,-0.34,-0.3482,-0.3481,-0.3535,-0.3546,-0.3512,-0.3512,-0.35,-0.3489,-0.3406,-0.3382,-0.3362,0,0,0,0,0,0,-0.2819,-0.3007,-0.3069,-0.3164,-0.3205,-0.328,-0.3267,-0.3321,-0.3339,-0.3348,-0.3432,-0.3447,-0.3431,-0.3453,-0.3511,-0.3432,-0.3503,-0.3493,-0.3436,-0.3414,-0.3396,-0.3434,-0.3626,0,0,0,0,0,-0.2817,-0.2907,-0.3035,-0.3088,-0.3114,-0.3186,-0.3201,-0.3253,-0.3292,-0.3306,-0.3348,-0.3369,-0.3382,-0.3388,-0.3403,-0.3359,-0.3371,-0.333,-0.3312,-0.3297,-0.3324,-0.3311,-0.3297,-0.3445,-0.3445,-0.3445,0,0,-0.276,-0.2885,-0.2922,-0.3065,-0.3099,-0.3117,-0.3201,-0.3219,-0.3223,-0.3314,-0.3294,-0.3321,-0.3356,-0.3318,-0.3309,-0.334,-0.3232,-0.3282,-0.327,-0.3307,-0.3298,-0.3285,-0.3273,-0.3437,-0.3439,-0.344,0,0,-0.2673,-0.2818,-0.2848,-0.2901,-0.2984,-0.3039,-0.3045,-0.3112,-0.3132,-0.311,-0.3178,-0.3168,-0.317,-0.3192,-0.3205,-0.3078,-0.3147,-0.3071,-0.3013,-0.2997,-0.2988,-0.298,-0.2877,-0.2862,-0.3051,-0.305,-0.305,0,-0.2593,-0.271,-0.2833,-0.2869,-0.2914,-0.3004,-0.3013,-0.3024,-0.3067,-0.3077,-0.3082,-0.3084,-0.3108,-0.3102,-0.3058,-0.3047,-0.3033,-0.311,-0.2982,-0.2975,-0.2969,-0.2867,-0.2851,-0.3044,-0.3045,-0.3046,-0.3046,0,-0.2524,-0.2625,-0.2628,-0.2746,-0.2782,-0.2804,-0.2875,-0.2879,-0.2907,-0.2933,-0.2917,-0.2924,-0.2948,-0.2917,-0.296,-0.2922,-0.2917,-0.2978,-0.3062,-0.295,-0.2846,-0.2831,-0.3036,-0.3038,-0.304,-0.3041,0,0,-0.237,-0.2555,-0.2562,-0.2646,-0.275,-0.2793,-0.2774,-0.2823,-0.2848,-0.2812,-0.2827,-0.2787,-0.2826,-0.284,-0.2875,-0.2843,-0.2739,-0.2892,-0.2894,-0.2828,-0.2649,-0.246,-0.2426,-0.2806,-0.2805,-0.2804,-0.2561,0,-0.229,-0.2386,-0.2478,-0.254,-0.2618,-0.2708,-0.2704,-0.2747,-0.2771,-0.2787,-0.2774,-0.2793,-0.2786,-0.2817,-0.2775,-0.2811,-0.2712,-0.2796,-0.2736,-0.2732,-0.2613,-0.2408,-0.2255,-0.2013,-0.2547,-0.2544,-0.2543,0,-0.2205,-0.2331,-0.2394,-0.2579,-0.2606,-0.2625,-0.2727,-0.2734,-0.2761,-0.2774,-0.2772,-0.2798,-0.2768,-0.2778,-0.2689,-0.2758,-0.268,-0.2649,-0.2641,-0.2513,-0.2518,-0.2225,-0.1967,-0.2031,-0.2521,-0.2523,-0.2524,0,-0.2127,-0.2277,-0.2361,-0.2416,-0.2586,-0.2617,-0.2679,-0.2728,-0.2759,-0.2793,-0.28,-0.2786,-0.2765,-0.2719,-0.2608,-0.2683,-0.2472,-0.2573,-0.2283,-0.2266,-0.2146,-0.2121,-0.1989,-0.2444,-0.2444,-0.2445,-0.2446,0,-0.2073,-0.2144,-0.2351,-0.2411,-0.2519,-0.2618,-0.2687,-0.2732,-0.2783,-0.2736,-0.2807,-0.2698,-0.2758,-0.2638,-0.2578,-0.233,-0.2421,-0.2221,-0.2187,-0.2087,-0.2061,-0.2126,-0.2215,-0.2436,-0.2438,-0.244,-0.2441,0,-0.1973,-0.2093,-0.2235,-0.2436,-0.2498,-0.2577,-0.2723,-0.2748,-0.2795,-0.2736,-0.2739,-0.2657,-0.2446,-0.2424,-0.2289,-0.2227,-0.2017,-0.194,-0.1762,-0.1711,-0.1562,-0.1649,-0.1466,-0.1426,-0.1631,-0.1625,-0.162,0,-0.1931,-0.1991,-0.2246,-0.2336,-0.2431,-0.2572,-0.263,-0.2743,-0.2718,-0.2587,-0.2488,-0.2327,-0.2009,-0.1762,-0.169,-0.1521,-0.1648,-0.1325,-0.1443,-0.1466,-0.1543,-0.1638,-0.163,-0.1202,-0.1193,-0.1187,-0.1181,0,-0.1853,-0.1931,-0.2055,-0.2262,-0.2374,-0.2453,-0.2507,-0.25,-0.2476,-0.2367,-0.1979,-0.1717,-0.1433,-0.1082,-0.0974,-0.0952,-0.1333,-0.1178,-0.1283,-0.1227,-0.1247,-0.1221,-0.1414,-0.1121,-0.1127,-0.1132,-0.1135,-0.1138,-0.1765,-0.1821,-0.1972,-0.2148,-0.2266,-0.2205,-0.2136,-0.2093,-0.1929,-0.1604,-0.1454,-0.0998,-0.0634,-0.0401,-0.0477,-0.0622,-0.0758,-0.0682,-0.0782,-0.0874,-0.0847,-0.084,-0.0483,-0.0485,-0.0487,-0.0488,-0.049,0,-0.1627,-0.1688,-0.1839,-0.1961,-0.1971,-0.2067,-0.1946,-0.1762,-0.141,-0.1167,-0.0783,-0.0235,0.0088,0.0063,-0.0011,-0.0193,-0.0384,-0.037,-0.0544,-0.0556,-0.059,-0.0588,-0.0139,-0.0139,-0.0139,-0.0139,-0.0139,-0.0139,-0.1551,-0.1577,-0.1658,-0.1623,-0.1674,-0.1466,-0.1312,-0.105,-0.0836,-0.0348,-0.0069,0.0106,0.0291,0.0257,-0.004,-0.0187,-0.0372,-0.0334,-0.0482,-0.0618,-0.066,-0.0701,-0.072,-0.0306,-0.0307,-0.039,-0.0391,-0.0392]},{"header":{"parameterUnit":"m.s-1","parameterCategory":2,"la1":30.2991,"la2":30.254,"lo1":-89.0895,"lo2":-89.0444,"dy":0.0017,"dx":0.0017,"nx":28,"ny":28,"refTime":"2023-07-30T21:00:00:Z","depth":"0","parameterNumber":3,"parameterNumberName":"V-component_of_CURRENTS"},"data":[0,0,0,0,0,0,0,0,0,0,0,0,0,0,0,0,0,0,0,0,0,0,0,0,0,0,0,0,0,0,0,0,0,0,0,0,0,0,0,0,0,0,0,0,0,0,0,0,0,0,0,0,0,0,0,0,0,0,-0.0756,-0.0755,0,-0.059,-0.0588,-0.0586,-0.0469,-0.0469,-0.0468,-0.0468,-0.0186,-0.0179,-0.0172,0,0,0,0,0,0,0,0,0,0,0,0,0,-0.0787,-0.0788,-0.0756,-0.0754,-0.0753,-0.059,-0.0588,-0.0585,-0.0469,-0.0469,-0.0468,-0.0468,-0.0188,-0.018,-0.0172,0,0,0,0,0,0,0,0,0,0,0,0,0,-0.0709,-0.0788,-0.0756,-0.0679,-0.067,-0.0591,-0.0588,-0.0584,-0.047,-0.0469,-0.0468,-0.0467,-0.0191,-0.0181,-0.017,-0.0121,0,0,-0.0138,-0.0134,0,0,0,0,0,0,0,0,-0.0714,-0.0708,-0.0692,-0.0684,-0.0674,-0.0553,-0.0495,-0.0425,-0.047,-0.0541,-0.0468,-0.0467,-0.0301,-0.0282,-0.0248,-0.0108,-0.0095,-0.0137,-0.0131,-0.0126,-0.0123,0,0,0,0,0,0,0,-0.072,-0.0713,-0.0686,-0.069,-0.068,-0.0588,-0.0578,-0.0481,-0.0422,-0.0535,-0.0527,-0.0516,-0.0295,-0.0258,-0.024,-0.0091,-0.0138,-0.0128,-0.0122,-0.0118,0.0162,0.0163,0,0,0,0,0,0,-0.0759,-0.072,-0.0691,-0.0682,-0.0697,-0.059,-0.0577,-0.059,-0.0426,-0.0402,-0.0517,-0.0511,-0.0277,-0.0253,-0.023,-0.0184,-0.0126,-0.0116,-0.011,0.0161,0.0163,0.0164,0,0,0,0,0,0,-0.0761,-0.076,-0.0698,-0.0698,-0.0684,-0.0592,-0.0605,-0.0587,-0.0554,-0.0414,-0.0387,-0.0504,-0.0275,-0.0244,-0.0126,-0.0172,-0.0112,-0.0102,0.016,0.0162,0.0163,-0.0078,0,0,0,0,0,0,-0.0763,-0.0762,-0.0782,-0.0702,-0.0686,-0.0663,-0.0606,-0.0584,-0.055,-0.0541,-0.0394,-0.0367,-0.0272,-0.0143,-0.0116,-0.0156,-0.0094,0.0158,0.0161,0.0163,-0.0072,-0.0085,-0.0097,0,0,0,0,0,-0.0765,-0.0801,-0.0784,-0.078,-0.0719,-0.0664,-0.0647,-0.0573,-0.0551,-0.054,-0.0425,-0.0371,-0.0111,-0.0133,-0.0102,-0.014,0.0157,0.016,0.0162,-0.0066,-0.0083,-0.0096,0,0,0,0,0,0,-0.081,-0.079,-0.077,-0.0795,-0.074,-0.0646,-0.0629,-0.0589,-0.0493,-0.0479,-0.0349,-0.0313,-0.0232,-0.013,-0.0158,-0.0043,0.0029,0.0038,-0.0155,-0.0169,-0.0182,-0.0249,-0.0085,0,0,0,0,0,-0.0838,-0.0863,-0.0809,-0.0822,-0.0804,-0.0722,-0.0692,-0.0647,-0.0556,-0.0515,-0.0413,-0.0293,-0.0196,-0.014,-0.003,0.0035,0.0113,0.0037,0.0024,0.0012,-0.0014,0.0026,0.0011,0.0172,0.0172,0.0172,0,0,-0.0847,-0.0847,-0.0852,-0.0833,-0.0782,-0.0773,-0.07,-0.0665,-0.0654,-0.0497,-0.0438,-0.0332,-0.0183,-0.0113,-0.0069,-0.0038,0.0026,0.0015,0.0003,-0.0017,0.0026,0.001,-0.0005,0.0174,0.0173,0.0173,0,0,-0.088,-0.0889,-0.0914,-0.0899,-0.0857,-0.081,-0.0813,-0.0731,-0.0691,-0.0616,-0.0512,-0.0442,-0.0266,-0.0204,-0.0141,-0.015,-0.0042,-0.0096,-0.0224,-0.0186,-0.0201,-0.0214,-0.0083,-0.0083,-0.0107,-0.0107,-0.0108,0,-0.0889,-0.0941,-0.0904,-0.0931,-0.0935,-0.0842,-0.0866,-0.0809,-0.0699,-0.0673,-0.0618,-0.0424,-0.0325,-0.0269,-0.0279,-0.0194,-0.0108,-0.0199,-0.0213,-0.0224,-0.0234,-0.0096,-0.0093,-0.0119,-0.0117,-0.0116,-0.0115,0,-0.0933,-0.0991,-0.1003,-0.1023,-0.1011,-0.102,-0.0958,-0.0928,-0.087,-0.0807,-0.0731,-0.0596,-0.049,-0.0456,-0.0373,-0.0385,-0.0277,-0.0245,-0.0206,-0.0267,-0.0114,-0.0106,-0.0135,-0.0131,-0.0127,-0.0125,0,0,-0.0927,-0.1021,-0.1031,-0.1093,-0.1081,-0.1082,-0.107,-0.1037,-0.102,-0.0928,-0.09,-0.0797,-0.0732,-0.0657,-0.0558,-0.0539,-0.0531,-0.0438,-0.043,-0.036,-0.0372,-0.0289,-0.027,-0.0511,-0.0512,-0.0513,-0.0222,0,-0.0975,-0.1106,-0.1108,-0.1206,-0.1279,-0.1226,-0.121,-0.1168,-0.1093,-0.1028,-0.0935,-0.0847,-0.08,-0.0749,-0.0739,-0.0548,-0.0528,-0.0608,-0.0276,-0.0265,-0.0233,-0.0268,-0.0182,0.0082,-0.0213,-0.0212,-0.0211,0,-0.1016,-0.113,-0.1265,-0.1365,-0.1374,-0.1389,-0.1386,-0.1358,-0.1248,-0.1175,-0.1114,-0.0991,-0.092,-0.0881,-0.0682,-0.0724,-0.0598,-0.0475,-0.046,-0.0308,-0.0173,0.0093,0.0109,0.0197,-0.0198,-0.0199,-0.02,0,-0.1094,-0.1227,-0.1366,-0.1408,-0.148,-0.1504,-0.1496,-0.1416,-0.1335,-0.1273,-0.1164,-0.1093,-0.0948,-0.0865,-0.0617,-0.0646,-0.0363,-0.0358,-0.0166,-0.0152,0.0023,0.0051,0.0107,-0.0291,-0.0292,-0.0293,-0.0293,0,-0.1179,-0.1281,-0.1425,-0.1517,-0.161,-0.1614,-0.1612,-0.1582,-0.1437,-0.1267,-0.1248,-0.106,-0.0942,-0.0736,-0.0616,-0.0327,-0.0358,-0.0194,-0.0102,-0.0045,-0.0028,0.0141,0.0164,-0.0281,-0.0284,-0.0286,-0.0288,0,-0.1236,-0.133,-0.1511,-0.165,-0.1665,-0.1739,-0.1647,-0.1563,-0.1477,-0.1247,-0.1203,-0.0973,-0.0714,-0.0572,-0.0326,-0.0233,0.006,0.005,0.0152,0.0244,0.0447,0.0455,0.0643,0.0762,0.03,0.0303,0.0306,0,-0.1271,-0.1387,-0.1613,-0.1672,-0.1731,-0.1785,-0.1703,-0.16,-0.1411,-0.1121,-0.0921,-0.0693,-0.0392,-0.0046,0.0052,0.0251,0.0286,0.0455,0.0344,0.0455,0.0533,0.0515,0.0599,0.0543,0.0548,0.0551,0.0554,0,-0.1333,-0.1426,-0.1577,-0.1735,-0.1733,-0.1649,-0.1508,-0.1353,-0.1089,-0.0858,-0.0402,-0.0191,0.0078,0.0343,0.0459,0.0553,0.0541,0.0536,0.0609,0.0671,0.07,0.0863,0.0419,0.0587,0.0584,0.0581,0.0579,0.0578,-0.1338,-0.145,-0.1628,-0.1757,-0.1696,-0.1423,-0.1247,-0.0963,-0.0607,-0.0089,0.0073,0.0511,0.0586,0.0755,0.0815,0.0891,0.0831,0.097,0.0973,0.0946,0.1012,0.0659,0.0924,0.0923,0.0922,0.0921,0.092,0,-0.1315,-0.1432,-0.1582,-0.1609,-0.1429,-0.1406,-0.1001,-0.0697,-0.0187,0.027,0.0729,0.1152,0.1257,0.1226,0.1219,0.1319,0.1303,0.1379,0.1359,0.1427,0.1106,0.1062,0.1416,0.1416,0.1416,0.1416,0.1416,0.1416,-0.1299,-0.1425,-0.1538,-0.1332,-0.1244,-0.0797,-0.0511,-0.0081,0.0315,0.1026,0.1466,0.1758,0.1698,0.154,0.1573,0.1612,0.1717,0.1723,0.1775,0.1514,0.1474,0.1436,0.1396,0.1815,0.1816,0.2123,0.2126,0.2128]}],[{"header":{"parameterUnit":"m.s-1","parameterCategory":2,"la1":30.2991,"la2":30.254,"lo1":-89.0895,"lo2":-89.0444,"dy":0.0017,"dx":0.0017,"nx":28,"ny":28,"refTime":"2023-07-30T21:00:00:Z","depth":"2","parameterNumber":2,"parameterNumberName":"U-component_of_CURRENTS"},"data":[0,0,0,0,0,0,0,0,0,0,0,0,0,0,0,0,0,0,0,0,0,0,0,0,0,0,0,0,0,0,0,0,0,0,0,0,0,0,0,0,0,0,0,0,0,0,0,0,0,0,0,0,0,0,0,0,0,0,-0.2188,-0.2189,0,-0.2219,-0.2219,-0.222,-0.2218,-0.2218,-0.2217,-0.2217,-0.2235,-0.2235,-0.2236,0,0,0,0,0,0,0,0,0,0,0,0,0,-0.2193,-0.2192,-0.2188,-0.2189,-0.2189,-0.2219,-0.2219,-0.222,-0.2218,-0.2218,-0.2217,-0.2217,-0.2234,-0.2235,-0.2236,0,0,0,0,0,0,0,0,0,0,0,0,0,-0.2203,-0.2192,-0.2188,-0.2193,-0.2193,-0.2219,-0.2219,-0.222,-0.2218,-0.2218,-0.2217,-0.2217,-0.2234,-0.2235,-0.2236,-0.2254,0,0,-0.224,-0.2241,0,0,0,0,0,0,0,0,-0.2202,-0.2203,-0.2191,-0.2192,-0.2193,-0.2215,-0.2228,-0.2231,-0.2218,-0.2208,-0.2217,-0.2216,-0.2228,-0.223,-0.2235,-0.2255,-0.2256,-0.224,-0.2241,-0.2241,-0.2242,0,0,0,0,0,0,0,-0.2201,-0.2202,-0.2199,-0.2192,-0.2193,-0.2216,-0.2216,-0.2229,-0.2219,-0.2209,-0.2209,-0.2214,-0.2228,-0.2234,-0.2236,-0.2256,-0.224,-0.2241,-0.2242,-0.2242,-0.2155,-0.2153,0,0,0,0,0,0,-0.2197,-0.2201,-0.2198,-0.22,-0.2198,-0.2216,-0.2216,-0.2208,-0.222,-0.2221,-0.2214,-0.2214,-0.2232,-0.2234,-0.2236,-0.2206,-0.2241,-0.2243,-0.2243,-0.2158,-0.2155,-0.2152,0,0,0,0,0,0,-0.2196,-0.2196,-0.2197,-0.2203,-0.2205,-0.2216,-0.2207,-0.2209,-0.222,-0.2224,-0.2225,-0.2225,-0.2232,-0.2235,-0.2215,-0.2208,-0.2243,-0.2244,-0.2162,-0.2157,-0.2153,-0.2178,0,0,0,0,0,0,-0.2196,-0.2195,-0.2189,-0.2202,-0.2204,-0.2188,-0.2208,-0.221,-0.2225,-0.2224,-0.2234,-0.2235,-0.2232,-0.2213,-0.2216,-0.221,-0.2245,-0.2166,-0.216,-0.2155,-0.2181,-0.2175,-0.217,0,0,0,0,0,-0.2196,-0.218,-0.2188,-0.2188,-0.2194,-0.2187,-0.219,-0.2197,-0.2226,-0.2211,-0.221,-0.2235,-0.2178,-0.2212,-0.2217,-0.2211,-0.2169,-0.2162,-0.2155,-0.2184,-0.2176,-0.217,0,0,0,0,0,0,-0.2177,-0.218,-0.2188,-0.2174,-0.2173,-0.2187,-0.2184,-0.2205,-0.22,-0.2204,-0.2218,-0.2216,-0.2188,-0.2183,-0.2221,-0.2156,-0.2169,-0.2163,-0.2189,-0.2182,-0.2177,-0.2198,-0.2246,0,0,0,0,0,-0.2173,-0.2161,-0.2167,-0.2156,-0.2157,-0.218,-0.2184,-0.219,-0.2191,-0.2191,-0.2196,-0.2183,-0.2163,-0.2162,-0.2136,-0.2128,-0.2116,-0.2111,-0.2106,-0.2102,-0.2113,-0.2098,-0.2094,-0.2129,-0.2129,-0.2129,0,0,-0.2166,-0.2164,-0.2159,-0.2151,-0.2159,-0.2156,-0.2179,-0.218,-0.2179,-0.2194,-0.2186,-0.2171,-0.215,-0.2118,-0.2106,-0.212,-0.2071,-0.2093,-0.2091,-0.2104,-0.2091,-0.2088,-0.2086,-0.2125,-0.2125,-0.2126,0,0,-0.2141,-0.2142,-0.2125,-0.2126,-0.213,-0.214,-0.2143,-0.2154,-0.2155,-0.2144,-0.2143,-0.2123,-0.2103,-0.2086,-0.2077,-0.2026,-0.2037,-0.2004,-0.2015,-0.2,-0.2,-0.1999,-0.1939,-0.1933,-0.201,-0.201,-0.201,0,-0.213,-0.2114,-0.2118,-0.2108,-0.2116,-0.2135,-0.2131,-0.2132,-0.2132,-0.2137,-0.2128,-0.2098,-0.2087,-0.2069,-0.2038,-0.2022,-0.2,-0.206,-0.2001,-0.2,-0.1999,-0.1939,-0.1932,-0.2011,-0.2011,-0.2011,-0.2011,0,-0.2095,-0.2091,-0.2082,-0.2077,-0.2082,-0.2076,-0.2087,-0.2087,-0.2102,-0.2107,-0.2086,-0.2062,-0.2051,-0.2029,-0.2027,-0.2005,-0.1983,-0.1998,-0.204,-0.1999,-0.1934,-0.1927,-0.2011,-0.2011,-0.2011,-0.2011,0,0,-0.2036,-0.2055,-0.2048,-0.2062,-0.207,-0.2073,-0.2073,-0.2078,-0.2096,-0.2074,-0.2085,-0.2041,-0.2049,-0.2036,-0.2027,-0.2014,-0.1972,-0.2008,-0.2007,-0.1985,-0.1907,-0.1801,-0.1782,-0.1992,-0.1991,-0.1991,-0.1853,0,-0.2003,-0.1995,-0.201,-0.2013,-0.2019,-0.2048,-0.2054,-0.2067,-0.2072,-0.2077,-0.2063,-0.2054,-0.2046,-0.2045,-0.2032,-0.1993,-0.1959,-0.2006,-0.1918,-0.1914,-0.1858,-0.1773,-0.1661,-0.1522,-0.1845,-0.1844,-0.1843,0,-0.1948,-0.196,-0.1962,-0.2011,-0.2016,-0.2022,-0.2059,-0.2067,-0.2081,-0.2088,-0.2088,-0.208,-0.2055,-0.2053,-0.1978,-0.2012,-0.1958,-0.1921,-0.1916,-0.1813,-0.1795,-0.1617,-0.1496,-0.1831,-0.1832,-0.1833,-0.1834,0,-0.1904,-0.1923,-0.1933,-0.1944,-0.1993,-0.2008,-0.2036,-0.2066,-0.2074,-0.2097,-0.2091,-0.2083,-0.205,-0.2016,-0.193,-0.1962,-0.1829,-0.1865,-0.1708,-0.1698,-0.1582,-0.1563,-0.1803,-0.1803,-0.1803,-0.1804,-0.1804,0,-0.1858,-0.1863,-0.1917,-0.1923,-0.1946,-0.1996,-0.2016,-0.2048,-0.2074,-0.2069,-0.2094,-0.2067,-0.2041,-0.1963,-0.1917,-0.1762,-0.1813,-0.1684,-0.1656,-0.1576,-0.1559,-0.1827,-0.1832,-0.1799,-0.18,-0.1801,-0.1802,0,-0.1797,-0.1831,-0.1846,-0.1904,-0.1923,-0.1939,-0.1992,-0.1994,-0.2042,-0.203,-0.2032,-0.2023,-0.1918,-0.1851,-0.1758,-0.1703,-0.1604,-0.1536,-0.1416,-0.1375,-0.1486,-0.1493,-0.1356,-0.1351,-0.1347,-0.1344,-0.1341,0,-0.1765,-0.1766,-0.1817,-0.1819,-0.184,-0.1877,-0.1885,-0.196,-0.1948,-0.1988,-0.1949,-0.1879,-0.1798,-0.1607,-0.1479,-0.1332,-0.1434,-0.1164,-0.1212,-0.1454,-0.144,-0.1454,-0.1466,-0.1045,-0.104,-0.1036,-0.1032,0,-0.1703,-0.1717,-0.1733,-0.1725,-0.1734,-0.1734,-0.175,-0.1758,-0.1823,-0.1835,-0.1807,-0.177,-0.1574,-0.138,-0.1182,-0.1087,-0.1189,-0.1073,-0.1347,-0.1182,-0.1151,-0.1142,-0.1165,-0.0995,-0.0999,-0.1002,-0.1004,-0.1005,-0.1644,-0.1631,-0.1629,-0.1608,-0.1597,-0.1542,-0.1514,-0.1552,-0.1552,-0.1525,-0.1603,-0.1491,-0.1433,-0.105,-0.093,-0.078,-0.0877,-0.0855,-0.0872,-0.0892,-0.0888,-0.0852,-0.0636,-0.0638,-0.0639,-0.064,-0.0641,0,-0.1543,-0.1524,-0.1503,-0.1444,-0.1338,-0.1382,-0.1362,-0.1305,-0.1279,-0.1304,-0.1282,-0.1088,-0.0947,-0.0851,-0.0583,-0.052,-0.0534,-0.0476,-0.0554,-0.0588,-0.062,-0.0608,-0.0278,-0.0277,-0.0277,-0.0276,0,0,-0.1491,-0.1422,-0.1395,-0.1178,-0.1118,-0.096,-0.0924,-0.0907,-0.0895,-0.0851,-0.081,-0.0875,-0.0859,-0.0626,-0.0536,-0.0386,-0.0479,-0.0315,-0.0602,-0.073,-0.0762,-0.082,-0.0837,0,0,0,0,0]},{"header":{"parameterUnit":"m.s-1","parameterCategory":2,"la1":30.2991,"la2":30.254,"lo1":-89.0895,"lo2":-89.0444,"dy":0.0017,"dx":0.0017,"nx":28,"ny":28,"refTime":"2023-07-30T21:00:00:Z","depth":"2","parameterNumber":3,"parameterNumberName":"V-component_of_CURRENTS"},"data":[0,0,0,0,0,0,0,0,0,0,0,0,0,0,0,0,0,0,0,0,0,0,0,0,0,0,0,0,0,0,0,0,0,0,0,0,0,0,0,0,0,0,0,0,0,0,0,0,0,0,0,0,0,0,0,0,0,0,-0.0464,-0.0463,0,-0.0381,-0.038,-0.0379,-0.0334,-0.0334,-0.0334,-0.0334,-0.019,-0.0187,-0.0183,0,0,0,0,0,0,0,0,0,0,0,0,0,-0.0537,-0.0536,-0.0464,-0.0463,-0.0462,-0.0381,-0.038,-0.0379,-0.0334,-0.0334,-0.0334,-0.0334,-0.0192,-0.0187,-0.0183,0,0,0,0,0,0,0,0,0,0,0,0,0,-0.0485,-0.0536,-0.0464,-0.043,-0.0426,-0.0382,-0.038,-0.0379,-0.0334,-0.0334,-0.0334,-0.0334,-0.0193,-0.0188,-0.0182,-0.0151,0,0,-0.0165,-0.0163,0,0,0,0,0,0,0,0,-0.0488,-0.0482,-0.0436,-0.0432,-0.0427,-0.0368,-0.0353,-0.03,-0.0334,-0.0369,-0.0334,-0.0333,-0.0244,-0.0234,-0.022,-0.0145,-0.0139,-0.0165,-0.0161,-0.0159,-0.0157,0,0,0,0,0,0,0,-0.0492,-0.0485,-0.0431,-0.0435,-0.043,-0.0402,-0.0395,-0.0343,-0.0307,-0.0366,-0.0362,-0.0353,-0.0241,-0.0226,-0.0216,-0.0136,-0.0165,-0.016,-0.0156,-0.0154,-0.0024,-0.0024,0,0,0,0,0,0,-0.0504,-0.0489,-0.0434,-0.0429,-0.0458,-0.0402,-0.0394,-0.0387,-0.0309,-0.0298,-0.0353,-0.0351,-0.0235,-0.0223,-0.0211,-0.0154,-0.0159,-0.0154,-0.0151,-0.0024,-0.0024,-0.0024,0,0,0,0,0,0,-0.0506,-0.05,-0.0437,-0.0457,-0.0447,-0.0401,-0.0394,-0.0386,-0.0371,-0.03,-0.0288,-0.0347,-0.0235,-0.0219,-0.017,-0.0148,-0.0151,-0.0146,-0.0025,-0.0024,-0.0024,-0.0049,0,0,0,0,0,0,-0.0509,-0.0502,-0.0505,-0.0458,-0.0446,-0.0414,-0.0394,-0.0384,-0.0365,-0.0362,-0.0291,-0.0277,-0.0233,-0.0178,-0.0164,-0.0141,-0.0142,-0.0025,-0.0025,-0.0024,-0.0048,-0.005,-0.0051,0,0,0,0,0,-0.0512,-0.0515,-0.0506,-0.0499,-0.0451,-0.0414,-0.0405,-0.0372,-0.0365,-0.0359,-0.0315,-0.028,-0.0167,-0.0174,-0.0157,-0.0132,-0.0025,-0.0025,-0.0024,-0.0048,-0.005,-0.0051,0,0,0,0,0,0,-0.0551,-0.051,-0.0498,-0.0491,-0.0457,-0.0406,-0.0399,-0.0377,-0.0339,-0.0337,-0.0276,-0.0259,-0.0205,-0.0173,-0.0182,-0.0096,-0.009,-0.0087,-0.0114,-0.0115,-0.0116,-0.013,-0.0137,0,0,0,0,0,-0.0563,-0.0555,-0.0509,-0.0505,-0.0491,-0.0448,-0.0431,-0.0408,-0.0366,-0.035,-0.0299,-0.0247,-0.0191,-0.0159,-0.0109,-0.0062,-0.0031,-0.0037,-0.0038,-0.004,-0.0041,0.0016,0.002,-0.0023,-0.0023,-0.0023,0,0,-0.0579,-0.0555,-0.0552,-0.0513,-0.0487,-0.0462,-0.0438,-0.0415,-0.039,-0.0338,-0.0294,-0.0247,-0.0181,-0.0127,-0.01,-0.0096,-0.0011,-0.0039,-0.0041,-0.0041,0.0017,0.0021,0.0025,-0.0023,-0.0023,-0.0023,0,0,-0.0601,-0.0586,-0.0582,-0.0554,-0.0516,-0.0483,-0.0479,-0.0429,-0.0404,-0.0358,-0.0312,-0.026,-0.0181,-0.0126,-0.0088,-0.0068,-0.0021,-0.0053,-0.0062,-0.0007,-0.0003,0.0001,0.0044,0.0052,-0.0052,-0.0052,-0.0052,0,-0.0622,-0.0609,-0.0576,-0.056,-0.0539,-0.0495,-0.0481,-0.0444,-0.0384,-0.0358,-0.035,-0.0231,-0.0176,-0.0098,-0.0092,-0.0067,-0.0038,-0.006,-0.0008,-0.0004,0.0001,0.0044,0.0054,-0.0053,-0.0053,-0.0053,-0.0053,0,-0.0632,-0.0621,-0.0617,-0.0579,-0.0553,-0.0536,-0.048,-0.0452,-0.0418,-0.0375,-0.0304,-0.0235,-0.0167,-0.0135,-0.0103,-0.0039,-0.003,-0.0017,-0.0005,0.0004,0.0049,0.0059,-0.0055,-0.0054,-0.0054,-0.0054,0,0,-0.0672,-0.0634,-0.0631,-0.062,-0.0563,-0.0543,-0.05,-0.0444,-0.0416,-0.0354,-0.0309,-0.0213,-0.0186,-0.0143,-0.0092,-0.004,0.0021,-0.0021,-0.0018,0.002,0.0134,0.0152,0.0165,0.0041,0.0043,0.0044,0.0151,0,-0.0688,-0.0679,-0.0644,-0.0625,-0.0613,-0.0557,-0.0521,-0.0465,-0.041,-0.0355,-0.0277,-0.0215,-0.0184,-0.0153,-0.0097,-0.0006,0.0046,-0.001,0.0121,0.0125,0.0139,0.0177,0.0149,0.0243,0.0162,0.0163,0.0165,0,-0.0702,-0.0692,-0.069,-0.065,-0.0639,-0.0622,-0.056,-0.052,-0.0429,-0.0386,-0.0315,-0.0251,-0.0159,-0.0143,0.0008,-0.0032,0.0043,0.011,0.0116,0.0148,0.0162,0.0222,0.0265,0.0182,0.018,0.0179,0.0178,0,-0.0751,-0.0719,-0.0726,-0.0712,-0.066,-0.065,-0.0621,-0.054,-0.0502,-0.041,-0.0367,-0.026,-0.0196,-0.0094,0.0039,0.0026,0.0201,0.0204,0.0292,0.0293,0.0304,0.0304,0.0308,0.0308,0.0307,0.0307,0.0307,0,-0.0779,-0.0779,-0.0757,-0.076,-0.0765,-0.0706,-0.0688,-0.064,-0.0558,-0.0512,-0.04,-0.0325,-0.018,-0.0059,0.0041,0.02,0.0204,0.0301,0.033,0.0294,0.0291,0.0262,0.0255,0.0311,0.031,0.031,0.0309,0,-0.0833,-0.0817,-0.0826,-0.0798,-0.0795,-0.0805,-0.0756,-0.0728,-0.0642,-0.0577,-0.0548,-0.0366,-0.0197,-0.0049,0.0139,0.0213,0.0354,0.0407,0.0348,0.0368,0.0406,0.0397,0.0518,0.052,0.0521,0.0523,0.0524,0,-0.0859,-0.0874,-0.088,-0.0898,-0.0895,-0.089,-0.0881,-0.0799,-0.0759,-0.0593,-0.0561,-0.0366,-0.0206,0.0079,0.0244,0.0429,0.0419,0.0493,0.047,0.0416,0.0432,0.042,0.0409,0.0474,0.0475,0.0475,0.0476,0,-0.0914,-0.0928,-0.0947,-0.0981,-0.0995,-0.0985,-0.0962,-0.0945,-0.083,-0.0735,-0.0549,-0.0395,-0.0094,0.0141,0.0361,0.0453,0.0457,0.0508,0.0493,0.0417,0.0382,0.0394,0.0384,0.0479,0.0479,0.0479,0.0478,0.0478,-0.0964,-0.1007,-0.1037,-0.1064,-0.107,-0.1062,-0.1048,-0.0985,-0.0906,-0.073,-0.0596,-0.0329,-0.0107,0.0248,0.0404,0.0543,0.0542,0.0557,0.0553,0.0549,0.0517,0.0485,0.0596,0.0596,0.0596,0.0597,0.0597,0,-0.1009,-0.1059,-0.1103,-0.1124,-0.111,-0.1102,-0.1072,-0.1016,-0.0908,-0.0726,-0.0533,-0.0276,-0.0014,0.0234,0.0477,0.0602,0.0575,0.0601,0.0545,0.0541,0.0537,0.0502,0.0578,0.0579,0.0579,0.0579,0,0,-0.1042,-0.1112,-0.1137,-0.1142,-0.1133,-0.1102,-0.1078,-0.0984,-0.0847,-0.0637,-0.0434,-0.0257,0.0044,0.0184,0.0345,0.0492,0.0474,0.0487,0.0487,0.0397,0.0392,0.0497,0.0437,0,0,0,0,0]}],[{"header":{"parameterUnit":"m.s-1","parameterCategory":2,"la1":30.2991,"la2":30.254,"lo1":-89.0895,"lo2":-89.0444,"dy":0.0017,"dx":0.0017,"nx":28,"ny":28,"refTime":"2023-07-30T21:00:00:Z","depth":"4","parameterNumber":2,"parameterNumberName":"U-component_of_CURRENTS"},"data":[0,0,0,0,0,0,0,0,0,0,0,0,0,0,0,0,0,0,0,0,0,0,0,0,0,0,0,0,0,0,0,0,0,0,0,0,0,0,0,0,0,0,0,0,0,0,0,0,0,0,0,0,0,0,0,0,0,0,-0.1509,-0.1509,0,-0.1522,-0.1522,-0.1522,-0.1558,-0.1559,-0.156,-0.1561,-0.157,-0.1569,-0.1569,0,0,0,0,0,0,0,0,0,0,0,0,0,-0.1514,-0.1514,-0.1509,-0.1509,-0.151,-0.1522,-0.1522,-0.1522,-0.1557,-0.1559,-0.156,-0.1561,-0.157,-0.1569,-0.1569,0,0,0,0,0,0,0,0,0,0,0,0,0,-0.1515,-0.1513,-0.1509,-0.1531,-0.1534,-0.1522,-0.1522,-0.1522,-0.1557,-0.1559,-0.156,-0.1562,-0.1571,-0.157,-0.1568,-0.153,0,0,-0.1565,-0.1565,0,0,0,0,0,0,0,0,-0.1515,-0.1514,-0.1528,-0.153,-0.1533,-0.1543,-0.1527,-0.1525,-0.1557,-0.1545,-0.1561,-0.1563,-0.1561,-0.1561,-0.1556,-0.153,-0.1531,-0.1565,-0.1564,-0.1564,-0.1564,0,0,0,0,0,0,0,-0.1515,-0.1514,-0.1511,-0.1528,-0.1531,-0.1541,-0.1542,-0.1527,-0.1542,-0.1546,-0.155,-0.1555,-0.1563,-0.1557,-0.1556,-0.1531,-0.1565,-0.1564,-0.1563,-0.1563,-0.1534,-0.1534,0,0,0,0,0,0,-0.1517,-0.1514,-0.1511,-0.1512,-0.1531,-0.154,-0.1541,-0.1535,-0.1542,-0.1546,-0.1554,-0.1557,-0.1558,-0.1558,-0.1557,-0.1589,-0.1564,-0.1563,-0.1562,-0.1535,-0.1534,-0.1534,0,0,0,0,0,0,-0.1517,-0.1516,-0.151,-0.1516,-0.1517,-0.1538,-0.1531,-0.1535,-0.1564,-0.1549,-0.1552,-0.1585,-0.1559,-0.1558,-0.1562,-0.1586,-0.1562,-0.1561,-0.1535,-0.1535,-0.1534,-0.1603,0,0,0,0,0,0,-0.1517,-0.1516,-0.1524,-0.1516,-0.1517,-0.1517,-0.153,-0.1534,-0.1565,-0.157,-0.1575,-0.1575,-0.156,-0.1564,-0.1561,-0.1584,-0.156,-0.1535,-0.1535,-0.1534,-0.16,-0.1605,-0.1608,0,0,0,0,0,-0.1517,-0.1516,-0.1524,-0.1525,-0.1522,-0.1518,-0.1519,-0.1538,-0.1565,-0.1572,-0.1578,-0.1577,-0.1561,-0.1563,-0.1559,-0.1583,-0.1535,-0.1535,-0.1534,-0.1599,-0.1604,-0.1608,0,0,0,0,0,0,-0.1527,-0.152,-0.1528,-0.1527,-0.1532,-0.1526,-0.154,-0.1555,-0.1565,-0.1581,-0.1574,-0.1573,-0.1587,-0.1567,-0.1569,-0.1571,-0.1548,-0.1547,-0.1598,-0.1603,-0.1607,-0.1603,-0.156,0,0,0,0,0,-0.1531,-0.1528,-0.1525,-0.1529,-0.1534,-0.1544,-0.1553,-0.1564,-0.1568,-0.1577,-0.1581,-0.1579,-0.1575,-0.1578,-0.1564,-0.1563,-0.1533,-0.1574,-0.1578,-0.1582,-0.1574,-0.1553,-0.1555,-0.1534,-0.1534,-0.1534,0,0,-0.154,-0.1534,-0.1537,-0.1532,-0.154,-0.1545,-0.1554,-0.157,-0.1585,-0.1573,-0.16,-0.1596,-0.1577,-0.158,-0.1584,-0.1572,-0.157,-0.1582,-0.1586,-0.1575,-0.1553,-0.1555,-0.1557,-0.1533,-0.1534,-0.1534,0,0,-0.1543,-0.155,-0.1547,-0.1551,-0.1563,-0.1566,-0.158,-0.1588,-0.1605,-0.1617,-0.1618,-0.1627,-0.162,-0.1611,-0.1605,-0.1619,-0.1595,-0.1622,-0.1642,-0.1622,-0.1624,-0.1625,-0.1588,-0.1585,-0.1623,-0.1624,-0.1624,0,-0.1558,-0.1547,-0.1549,-0.1549,-0.1561,-0.1581,-0.1589,-0.1601,-0.1613,-0.1622,-0.1635,-0.1635,-0.1632,-0.1632,-0.1641,-0.1631,-0.1607,-0.1633,-0.163,-0.163,-0.163,-0.1591,-0.1588,-0.1627,-0.1626,-0.1626,-0.1626,0,-0.1547,-0.1556,-0.1559,-0.1564,-0.1576,-0.1587,-0.1603,-0.1624,-0.1653,-0.166,-0.1679,-0.167,-0.1667,-0.1676,-0.1666,-0.1669,-0.1647,-0.1642,-0.1623,-0.1637,-0.1594,-0.1589,-0.1631,-0.163,-0.1629,-0.1628,0,0,-0.1527,-0.1548,-0.155,-0.1563,-0.1587,-0.1593,-0.1623,-0.1639,-0.1663,-0.1682,-0.1698,-0.1706,-0.171,-0.1701,-0.1697,-0.1687,-0.1677,-0.1671,-0.1668,-0.1643,-0.1621,-0.1501,-0.1483,-0.1679,-0.1679,-0.1678,-0.1591,0,-0.152,-0.1527,-0.154,-0.1564,-0.1572,-0.1605,-0.1629,-0.1654,-0.1677,-0.1696,-0.1703,-0.1714,-0.1717,-0.1724,-0.1717,-0.1686,-0.1667,-0.17,-0.1602,-0.1598,-0.1498,-0.1474,-0.1677,-0.1587,-0.1586,-0.1585,-0.1584,0,-0.1491,-0.1502,-0.1523,-0.1564,-0.1572,-0.1596,-0.1639,-0.1661,-0.1691,-0.171,-0.1724,-0.1727,-0.1722,-0.1725,-0.1675,-0.1698,-0.1662,-0.1637,-0.1633,-0.149,-0.1467,-0.1568,-0.1574,-0.1575,-0.1576,-0.1576,-0.1577,0,-0.1455,-0.1487,-0.1508,-0.1522,-0.157,-0.1595,-0.1626,-0.1665,-0.1679,-0.1715,-0.1719,-0.1725,-0.1711,-0.1686,-0.1635,-0.1658,-0.1565,-0.1586,-0.1439,-0.143,-0.154,-0.1539,-0.1541,-0.1541,-0.1541,-0.1541,-0.1542,0,-0.1419,-0.1438,-0.1499,-0.1508,-0.1537,-0.1583,-0.1614,-0.1647,-0.1681,-0.1672,-0.1719,-0.1696,-0.1701,-0.165,-0.1622,-0.1493,-0.1547,-0.1421,-0.1393,-0.1568,-0.1572,-0.1535,-0.1536,-0.1538,-0.1539,-0.1539,-0.154,0,-0.1366,-0.1408,-0.1433,-0.1496,-0.1517,-0.1538,-0.1594,-0.1602,-0.1654,-0.1639,-0.1645,-0.1656,-0.1579,-0.1554,-0.149,-0.1439,-0.1359,-0.1302,-0.1467,-0.1454,-0.1246,-0.1251,-0.113,-0.1125,-0.112,-0.1117,-0.1114,0,-0.1336,-0.1346,-0.1412,-0.1423,-0.1453,-0.1495,-0.1508,-0.1575,-0.1565,-0.1589,-0.1551,-0.1511,-0.1494,-0.1302,-0.1308,-0.1215,-0.1205,-0.1167,-0.1228,-0.1215,-0.1201,-0.1213,-0.1223,-0.1107,-0.1106,-0.1104,-0.1103,0,-0.1277,-0.1314,-0.1334,-0.1343,-0.1365,-0.1373,-0.1394,-0.1382,-0.1425,-0.1497,-0.1413,-0.1363,-0.126,-0.1204,-0.1122,-0.1074,-0.1201,-0.1122,-0.1132,-0.1189,-0.1186,-0.1179,-0.1194,-0.1088,-0.109,-0.1092,-0.1093,0,-0.1235,-0.1229,-0.1246,-0.1235,-0.1251,-0.1203,-0.1253,-0.1225,-0.1229,-0.1273,-0.1241,-0.1212,-0.1237,-0.1126,-0.1061,-0.0985,-0.098,-0.0975,-0.0993,-0.101,-0.1008,-0.0989,-0.0784,0,0,0,0,0,-0.1178,-0.114,-0.1128,-0.1091,-0.1094,-0.1085,-0.1133,-0.1183,-0.1243,-0.1146,-0.119,-0.1099,-0.1002,-0.1003,-0.0891,-0.0979,-0.0969,-0.0847,-0.0971,-0.1005,-0.1022,-0.1031,0,0,0,0,0,0,-0.1133,-0.1125,-0.1083,-0.0944,-0.0891,-0.0864,-0.0887,-0.0947,-0.0908,-0.0996,-0.0947,-0.1022,-0.0937,-0.1019,-0.0859,-0.0853,-0.0909,-0.0849,-0.0846,-0.0995,-0.1011,-0.1025,-0.104,0,0,0,0,0]},{"header":{"parameterUnit":"m.s-1","parameterCategory":2,"la1":30.2991,"la2":30.254,"lo1":-89.0895,"lo2":-89.0444,"dy":0.0017,"dx":0.0017,"nx":28,"ny":28,"refTime":"2023-07-30T21:00:00:Z","depth":"4","parameterNumber":3,"parameterNumberName":"V-component_of_CURRENTS"},"data":[0,0,0,0,0,0,0,0,0,0,0,0,0,0,0,0,0,0,0,0,0,0,0,0,0,0,0,0,0,0,0,0,0,0,0,0,0,0,0,0,0,0,0,0,0,0,0,0,0,0,0,0,0,0,0,0,0,0,-0.032,-0.0319,0,-0.0274,-0.0273,-0.0273,-0.0255,-0.0256,-0.0256,-0.0256,-0.0209,-0.0208,-0.0207,0,0,0,0,0,0,0,0,0,0,0,0,0,-0.0359,-0.0359,-0.032,-0.0319,-0.0319,-0.0274,-0.0273,-0.0272,-0.0255,-0.0256,-0.0256,-0.0256,-0.021,-0.0208,-0.0207,0,0,0,0,0,0,0,0,0,0,0,0,0,-0.0331,-0.0359,-0.032,-0.0304,-0.0303,-0.0274,-0.0273,-0.0272,-0.0255,-0.0256,-0.0256,-0.0256,-0.021,-0.0208,-0.0206,-0.019,0,0,-0.02,-0.0199,0,0,0,0,0,0,0,0,-0.0333,-0.033,-0.0307,-0.0305,-0.0303,-0.027,-0.027,-0.0245,-0.0255,-0.0274,-0.0256,-0.0256,-0.0229,-0.0226,-0.0217,-0.0188,-0.0186,-0.02,-0.0199,-0.0198,-0.0197,0,0,0,0,0,0,0,-0.0335,-0.0331,-0.0302,-0.0307,-0.0304,-0.0288,-0.0285,-0.0265,-0.0251,-0.0272,-0.0271,-0.0265,-0.0228,-0.0219,-0.0216,-0.0185,-0.02,-0.0198,-0.0197,-0.0196,-0.0138,-0.0137,0,0,0,0,0,0,-0.0341,-0.0333,-0.0303,-0.03,-0.0318,-0.0287,-0.0284,-0.0281,-0.0251,-0.0247,-0.0265,-0.0264,-0.0223,-0.0218,-0.0214,-0.0175,-0.0198,-0.0196,-0.0195,-0.0138,-0.0138,-0.0137,0,0,0,0,0,0,-0.0342,-0.0339,-0.0305,-0.0315,-0.031,-0.0287,-0.0284,-0.028,-0.0275,-0.0246,-0.0242,-0.0265,-0.0222,-0.0217,-0.0202,-0.0174,-0.0195,-0.0193,-0.0138,-0.0138,-0.0137,-0.0109,0,0,0,0,0,0,-0.0344,-0.034,-0.0346,-0.0316,-0.031,-0.0294,-0.0283,-0.0279,-0.0271,-0.027,-0.0244,-0.024,-0.0222,-0.0205,-0.02,-0.0172,-0.0192,-0.0139,-0.0138,-0.0137,-0.011,-0.0108,-0.0105,0,0,0,0,0,-0.0345,-0.0351,-0.0347,-0.0344,-0.0317,-0.0294,-0.0289,-0.0273,-0.0271,-0.027,-0.0253,-0.0241,-0.0197,-0.0203,-0.0197,-0.0168,-0.0139,-0.0138,-0.0138,-0.0112,-0.0108,-0.0105,0,0,0,0,0,0,-0.0375,-0.0349,-0.0344,-0.0343,-0.0323,-0.0291,-0.0291,-0.0277,-0.0262,-0.0266,-0.0239,-0.0233,-0.0206,-0.02,-0.0207,-0.0151,-0.0164,-0.0162,-0.0147,-0.0143,-0.0141,-0.0143,-0.019,0,0,0,0,0,-0.0384,-0.0382,-0.0353,-0.0355,-0.0346,-0.032,-0.0311,-0.0299,-0.0278,-0.0273,-0.0251,-0.0229,-0.0196,-0.0183,-0.0162,-0.0136,-0.0123,-0.0114,-0.0111,-0.0109,-0.0108,-0.0055,-0.0047,-0.0135,-0.0135,-0.0135,0,0,-0.0398,-0.0383,-0.0384,-0.0361,-0.0347,-0.0327,-0.0316,-0.0305,-0.0284,-0.027,-0.0244,-0.0221,-0.019,-0.0155,-0.0141,-0.0146,-0.0081,-0.0108,-0.0106,-0.0106,-0.0053,-0.0044,-0.0036,-0.0134,-0.0134,-0.0134,0,0,-0.0413,-0.0411,-0.0408,-0.0389,-0.0367,-0.0345,-0.0343,-0.0312,-0.0296,-0.0272,-0.0246,-0.0209,-0.0179,-0.0134,-0.011,-0.0084,-0.007,-0.0081,-0.0064,-0.0012,-0.0004,0.0004,0.0016,0.0024,-0.0078,-0.0078,-0.0078,0,-0.0432,-0.042,-0.0405,-0.039,-0.0374,-0.0352,-0.0337,-0.0313,-0.0281,-0.0259,-0.0267,-0.0188,-0.016,-0.0089,-0.0078,-0.0073,-0.0062,-0.0075,-0.0007,0.0001,0.0008,0.0019,0.0028,-0.0076,-0.0077,-0.0077,-0.0077,0,-0.0433,-0.0424,-0.0422,-0.0392,-0.0374,-0.0362,-0.0323,-0.0305,-0.0286,-0.0254,-0.0198,-0.0158,-0.0111,-0.0087,-0.0073,-0.0002,-0.0018,-0.0009,-0.0011,0.0019,0.0028,0.0037,-0.0074,-0.0075,-0.0075,-0.0076,0,0,-0.0468,-0.043,-0.043,-0.0416,-0.0375,-0.0361,-0.0323,-0.0276,-0.0251,-0.021,-0.0169,-0.0094,-0.0076,-0.0049,-0.0016,0.0034,0.0094,0.003,0.0032,0.0047,0.0179,0.0163,0.017,0.0117,0.0119,0.012,0.016,0,-0.0473,-0.0454,-0.0426,-0.0403,-0.0386,-0.0349,-0.0316,-0.0272,-0.0235,-0.0194,-0.0128,-0.0086,-0.0059,-0.0041,0.0021,0.007,0.012,0.008,0.0143,0.0144,0.0132,0.0182,0.0127,0.0166,0.0168,0.017,0.0171,0,-0.0477,-0.046,-0.0445,-0.0402,-0.0393,-0.038,-0.0329,-0.0296,-0.0224,-0.0196,-0.0131,-0.0093,-0.001,-0.0002,0.0118,0.0086,0.0135,0.0175,0.0178,0.0161,0.0145,0.0133,0.0187,0.0185,0.0184,0.0183,0.0182,0,-0.0507,-0.0471,-0.0464,-0.0451,-0.0401,-0.0391,-0.0367,-0.0304,-0.0284,-0.0206,-0.0191,-0.0083,-0.0052,0.0043,0.0126,0.0121,0.0241,0.0246,0.0281,0.0278,0.0266,0.0258,0.0341,0.0341,0.0341,0.0341,0.0341,0,-0.0513,-0.0509,-0.0487,-0.0483,-0.0484,-0.043,-0.0422,-0.038,-0.0326,-0.0308,-0.0208,-0.0175,-0.0039,0.0042,0.0125,0.0224,0.0245,0.0293,0.0302,0.0273,0.0265,0.0271,0.0263,0.0342,0.0342,0.0342,0.0341,0,-0.0547,-0.053,-0.0531,-0.0503,-0.0504,-0.0511,-0.0492,-0.048,-0.0417,-0.0393,-0.0376,-0.025,-0.0134,-0.0003,0.0144,0.0206,0.0311,0.0342,0.0278,0.028,0.0308,0.03,0.0384,0.0384,0.0384,0.0384,0.0384,0,-0.0558,-0.0564,-0.0577,-0.0602,-0.0601,-0.0604,-0.0611,-0.0549,-0.0534,-0.0443,-0.0438,-0.0314,-0.0222,-0.0025,0.0119,0.029,0.0316,0.0353,0.0364,0.0319,0.0319,0.0311,0.0304,0.0384,0.0384,0.0384,0.0384,0,-0.0588,-0.0612,-0.0624,-0.0676,-0.0705,-0.0716,-0.0715,-0.0707,-0.0629,-0.0585,-0.0482,-0.0352,-0.0216,-0.0037,0.0101,0.0223,0.0324,0.0355,0.0356,0.0366,0.032,0.0319,0.0311,0.0384,0.0384,0.0384,0.0384,0,-0.0633,-0.0668,-0.0704,-0.0743,-0.0784,-0.0797,-0.0788,-0.0746,-0.071,-0.0594,-0.057,-0.0388,-0.0279,-0.0073,0.0051,0.0178,0.0211,0.0236,0.0243,0.0245,0.0202,0.0124,0.0147,0,0,0,0,0,-0.0664,-0.0712,-0.0762,-0.0797,-0.0831,-0.0844,-0.0839,-0.081,-0.0743,-0.0685,-0.0616,-0.0481,-0.0253,-0.014,-0.0015,0.0042,0.022,0.019,0.0249,0.0386,0.0385,0.0359,0,0,0,0,0,0,-0.0693,-0.0757,-0.0774,-0.0822,-0.0846,-0.0872,-0.0866,-0.0824,-0.0766,-0.0689,-0.056,-0.0474,-0.0246,-0.0328,-0.002,0.0022,0.007,0.0308,0.031,0.0386,0.0386,0.0385,0.0358,0,0,0,0,0]}]]